Regional Weather Roundup
Issued by NWS Charleston, SC

Current Version | Previous Version | Graphics & Text | Print | Product List | Glossary On
Versions: 1 2 3 4 5 6 7 8 9 10 11 12 13 14 15 16 17 18 19 20 21 22 23 24 25 26 27 28 29 30 31 32 33 34 35 36 37 38 39 40 41 42 43 44 45 46 47 48 49 50
000
ASUS42 KCHS 210611
RWRCHS

REGIONAL WEATHER ROUNDUP
NATIONAL WEATHER SERVICE CHARLESTON SC
200 AM EDT TUE APR 21 2015

NOTE: "FAIR" INDICATES FEW OR NO CLOUDS BELOW 12,000 FEET WITH NO
SIGNIFICANT WEATHER AND/OR OBSTRUCTIONS TO VISIBILITY.

NOT ALL STATIONS ARE QUALITY CONTROLLED BY THE NATIONAL
WEATHER SERVICE. USE DATA WITH CAUTION...ESPECIALLY
DEWPOINT OBSERVATIONS.

SCZ027-030-031-034>040-042>050-210700-
...SOUTHEAST SOUTH CAROLINA...

CITY           SKY/WX    TMP DP  RH WIND       PRES   REMARKS
N CHARLESTON   FAIR      67  59  75 SW10      29.83F
6HR MIN TEMP:  67; 6HR MAX TEMP:  72;

WATERFRONT PRK   N/A     68 N/A N/A SW8         N/A
MOUNT PLEASANT FAIR      68  61  77 CALM      29.83F
PINOPOLIS      NOT AVBL
MONCKS CORNER  FAIR      66  59  77 SW9       29.82S
SUMMERVILLE    FAIR      64  61  88 SW5       29.84S
BEAUFORT MCAS  FAIR      66  60  81 SW14      29.85S
6HR MIN TEMP:  66; 6HR MAX TEMP:  70;

BEAUFORT ARPT  FAIR      68  63  83 SW10G16   29.85F
HILTON HEAD IS FAIR      66  63  88 SW9       29.87F
WALTERBORO     FAIR      64  59  82 SW8       29.85R
ALLENDALE      CLOUDY    64  61  88 CALM      29.85R

...SOUTHERN MIDLANDS AND PEE DEE...

CITY           SKY/WX    TMP DP  RH WIND       PRES   REMARKS
GEORGETOWN     NOT AVBL
KINGSTREE      NOT AVBL
ORANGEBURG     FAIR      62  59  90 SW6       29.83R
6HR MIN TEMP:  62; 6HR MAX TEMP:  69;

BARNWELL       FAIR      64  63  94 SW5       29.85R
AIKEN          FAIR      63  48  59 W12       29.86S
MANNING        FAIR      64  59  82 SW8       29.82S
COLUMBIA       FAIR      65  52  62 W9        29.80S
6HR MIN TEMP:  65; 6HR MAX TEMP:  72;

SUMTER         FAIR      64  59  85 SW13      29.78R
6HR MIN TEMP:  64; 6HR MAX TEMP:  70;

FLORENCE       FAIR      66  60  81 SW10      29.78R
6HR MIN TEMP:  66; 6HR MAX TEMP:  70;

MYRTLE BEACH   FAIR      70  57  64 SW13G21   29.82S
N MYRTLE BEACH FAIR      68  59  73 SW13      29.79R
6HR MIN TEMP:  67; 6HR MAX TEMP:  69; 6HR PCP: TRACE;


$$

GAZ063-065-086>088-099>101-113>116-118-119-134>141-150-210700-
...SOUTHEAST GEORGIA...

CITY           SKY/WX    TMP DP  RH WIND       PRES   REMARKS
SAVANNAH ARPT  FAIR      64  59  83 SW10      29.87S
6HR MIN TEMP:  64; 6HR MAX TEMP:  69;

HUNTER AAF     FAIR      65  62  93 SW9       29.86S
6HR MIN TEMP:  65; 6HR MAX TEMP:  69;

FORT STEWART   NOT AVBL
STATESBORO       N/A     65  65 100 W8        29.87R
SYLVANIA       FAIR      65  63  94 W5        29.86R
CLAXTON        FAIR      63  63 100 CALM      29.87R

...CSRA...CENTRAL AND FAR SOUTHEAST GEORGIA...

CITY           SKY/WX    TMP DP  RH WIND       PRES   REMARKS
THOMSON        FAIR      61  56  84 CALM      29.91R
AUGUSTA-BUSH   FAIR      62  57  83 W6        29.85R
6HR MIN TEMP:  62; 6HR MAX TEMP:  70;

AUGUSTA-DANIEL MOCLDY    67  49  52 W9G17     29.86R
SWAINSBORO     NOT AVBL
VIDALIA        CLOUDY    66  64  94 W7        29.87S
EASTMAN        FAIR      65  65 100 NW3       29.91R
HAZLEHURST     MOCLDY    69  67  95 SW6       29.87S
ALMA           CLOUDY    65  63  93 SW5       29.88S
6HR MIN TEMP:  63; 6HR MAX TEMP:  67;

WAYCROSS       CLOUDY    68  67  96 SW7       29.89F
JESUP          CLOUDY    68  64  88 W6        29.89F
BAXLEY         CLOUDY    68  64  88 W6        29.88S
BRUNSWICK      MOCLDY    68  61  77 SW8       29.90F
SAINT SIMONS   FAIR      67  62  84 SW12      29.90S
6HR MIN TEMP:  65; 6HR MAX TEMP:  67;


$$

SCZ027-028-034-036>038-045-046-048>050-GAZ119-141-210700-
...LAKE AND SUPPLEMENTAL COASTAL OBSERVATIONS...

STATION/POSITION TIME  TEMP    WIND        PRES    WAVE   SWELL
                       AIR SEA DIR/SP/G            HT/PER HT/PER/DIR
                 (UTC) (F)     (DEG/KT/KT) (MB)    (FT/S) (FT/S/D)
UPR LAKE MARION  NOT AVBL
WINYAH BAY       0445   70     220/ 12     1008.0
LAKE MURRAY      0500   66     240/  9/ 15 1008.5R
ACE BASIN NERRS  NOT AVBL
FORT PULASKI     0500   67 71  210/  8/ 13 1012.0R
SAPELO ISLAND    0500   66     200/ 10     1012.0S

$$

ANZ835-935-AMZ111-154-330-350-352-354-370-450-454-472-210700-
...C-MAN AND BUOY OBSERVATIONS...

STATION/POSITION TIME  TEMP    WIND        PRES    WAVE   SWELL
                       AIR SEA DIR/SP/G            HT/PER HT/PER/DIR
                 (UTC) (F)     (DEG/KT/KT) (MB)    (FT/S) (FT/S/D)
BUOY 41004       0550   72 73  240/ 17/ 21 1010.0F   5/ 6   2/ 8
BUOY 41008       0550   68 68  220/ 14/ 17 1012.1F   2/ 3
FOLLY BEACH CMAN 0600   68     230/ 12/ 16 1010.4F
CAPERS NEARSHORE NOT AVBL
FRIPP NEARSHORE  NOT AVBL


STATION/POSITION TIME  TEMP    WIND        PRES    WAVE   SWELL
                       AIR SEA DIR/SP/G            HT/PER HT/PER/DIR
                 (UTC) (F)     (DEG/KT/KT) (MB)    (FT/S) (FT/S/D)
5E ST. MARYS GA  0521      70                N/A     2/13
FRYING PAN BUOY  0550   74 72  230/ 21/ 27 1009.4F   5/ 6   2/160/ 8
BUOY 41025       0550   75 75  220/ 21/ 27 1007.2F   6/ 6   2/ 70/ 9
CAPE LOOKOUT NC  0600   68     200/ 19/ 23 1007.7F
BUOY 41002       0550   72 72  220/ 17/ 23 1012.1F   5/ 6   2/ 80/14
BUOY 41010       0520   74 78   70/ 10/ 12 1013.2R
ST AUGUSTINE FL  0600   64 63  260/  6/  7 1014.0F


$$


USA.gov is the U.S. government's official web portal to all federal, state and local government web resources and services.